Location: Diati
(11.8376°N, 2.5966°E)
Time: 18:04:15
(UTC+00:00)

Intelsat 5-3 Rocket - Pass Details

Date: 21 September 2020
Orbit: 282 x 6112 km, 23.6° (Epoch: 19 October)

Event Time Altitude Azimuth Distance (km) Brightness Sun altitude
Rises 18:07:14 0° 299° (WNW) 2,234 6.7 -6.0°
Reaches altitude 10° 18:08:45 10° 304° (NW) 1,583 5.7 -6.4°
Maximum altitude 18:12:03 57° 25° (NNE) 804 3.0 -7.2°
Drops below altitude 10° 18:19:35 10° 102° (ESE) 3,554 5.8 -9.0°
Enters shadow 18:19:44 10° 103° (ESE) 3,617 5.8 -9.1°
